Regional Weather Roundup
Issued by NWS

Current Version | Previous Version | Text Only | Print | Product List | Glossary On
Versions: 1 2 3 4 5 6 7 8 9 10 11 12 13 14 15 16 17 18 19 20 21 22 23 24 25 26 27 28
000
ASUS45 KBOI 250810
RWRID

IDAHO REGIONAL WEATHER ROUNDUP
NATIONAL WEATHER SERVICE BOISE ID
100 AM MST SUN FEB 25 2018

NOTE: "FAIR" INDICATES FEW OR NO CLOUDS BELOW 12000 FEET
WITH NO SIGNIFICANT WEATHER AND/OR OBSTRUCTIONS TO VISIBILITY

IDZ012-014-250900-
SOUTHWEST IDAHO


CITY           SKY/WX    TMP DP  RH WIND       PRES   REMARKS
BOISE          CLEAR     22  18  85 W3        30.15R
CALDWELL       CLEAR     15  11  83 CALM      30.18R
MOUNTAIN HOME  CLEAR     17  17 100 NW8       30.15R WCI   7
$$

IDZ016-017-250900-
SOUTHCENTRAL IDAHO


CITY           SKY/WX    TMP DP  RH WIND       PRES   REMARKS
BURLEY         FLURRIES  22  15  75 W18G39    30.01R WCI   7
JEROME         CLEAR     20  15  81 SW17      30.06R WCI   5
TWIN FALLS     CLEAR     20  13  74 SW21      30.07R WCI   4
$$

IDZ019>023-250900-
SOUTHEAST IDAHO


CITY           SKY/WX    TMP DP  RH WIND       PRES   REMARKS
IDAHO FALLS    CLOUDY    20  17  88 SW10      29.94S WCI   9
POCATELLO      CLOUDY    23  19  85 SW22      30.00R WCI   8
REXBURG        CLOUDY    19  17  92 SW13      29.92R WCI   6
$$

IDZ006-010-011-018-031-032-250900-
CENTRAL IDAHO MOUNTAINS


CITY           SKY/WX    TMP DP  RH WIND       PRES   REMARKS
MCCALL         CLOUDY    16  13  88 CALM      29.97S
HAILEY           N/A    N/A N/A N/A MISG        N/A
STANLEY          N/A     11   4  73 CALM      29.93R
SALMON         MOCLDY    19  17  92 NE5       29.96R WCI  12
CHALLIS        CLOUDY    18   9  68 CALM      29.93R
$$

IDZ002-004-006-007-026-250900-
NORTHERN IDAHO


CITY           SKY/WX    TMP DP  RH WIND       PRES   REMARKS
LEWISTON       MOCLDY    32  25  75 N3        30.04F
LOWELL           N/A     29  28  96 CALM      30.09S
COEUR D`ALENE  MOCLDY    26  22  84 S13       29.91F WCI  15
MULLAN PASS    SNOW      17  14  88 SW13G26   29.73F VSB 1/4 WCI   4
$$




USA.gov is the U.S. government's official web portal to all federal, state and local government web resources and services.